When you browse on this site, cookies collect data to enhance your experience and personalize the content and advertising you see.
Visit our Privacy Policy to learn more. By continuing to use the site, you agree to this use of cookies and data.
  • In Latvia
  • List of Countries
  • For 7 days
  • Water Temperature
  • Weather Map
  • Weather Widgets
  • user-avatar
    Login

    Hourly Weather Mohovoy

    Today, 23 September, Monday

    Time Temperature Precipitation Wind Pressure Humidity
    00:00 +2°C° 0 mm 9 mps 736 mmHg 76%
    01:00 +2°C° 0 mm 10 mps 736 mmHg 76%
    02:00 +1°C° 0 mm 10 mps 737 mmHg 77%
    03:00 +1°C° 0 mm 10 mps 737 mmHg 78%
    04:00 +1°C° 0 mm 10 mps 738 mmHg 78%
    05:00 +1°C° 0 mm 10 mps 738 mmHg 78%
    06:00 +1°C° 0 mm 10 mps 739 mmHg 77%
    07:00 +2°C° 0.1 mm 9 mps 740 mmHg 73%
    08:00 +3°C° 0.1 mm 9 mps 741 mmHg 68%
    09:00 +5°C° 0.1 mm 8 mps 742 mmHg 63%
    10:00 +5°C° 0 mm 8 mps 743 mmHg 61%
    11:00 +5°C° 0 mm 8 mps 743 mmHg 59%
    12:00 +6°C° 0 mm 8 mps 744 mmHg 56%
    13:00 +6°C° 0 mm 8 mps 744 mmHg 54%
    14:00 +6°C° 0 mm 7 mps 745 mmHg 52%
    15:00 +8°C° 0 mm 7 mps 745 mmHg 51%
    16:00 +7°C° 0 mm 6 mps 746 mmHg 53%
    17:00 +6°C° 0 mm 5 mps 746 mmHg 56%
    18:00 +5°C° 0 mm 5 mps 746 mmHg 59%
    19:00 +3°C° 0 mm 5 mps 747 mmHg 62%
    20:00 +3°C° 0 mm 5 mps 748 mmHg 66%
    21:00 +3°C° 0 mm 5 mps 748 mmHg 69%
    22:00 +2°C° 0 mm 5 mps 748 mmHg 70%
    23:00 +2°C° 0 mm 5 mps 748 mmHg 71%

    Tomorrow, 24 September, Tuesday

    Time Temperature Precipitation Wind Pressure Humidity
    00:00 +2°C° 0 mm 5 mps 748 mmHg 72%
    01:00 +2°C° 0 mm 5 mps 748 mmHg 73%
    02:00 +1°C° 0 mm 5 mps 749 mmHg 73%
    03:00 +1°C° 0 mm 5 mps 749 mmHg 74%
    04:00 +1°C° 0 mm 5 mps 749 mmHg 76%
    05:00 0°C° 0 mm 5 mps 749 mmHg 77%
    06:00 0°C° 0 mm 5 mps 749 mmHg 79%
    07:00 +2°C° 0 mm 5 mps 750 mmHg 71%
    08:00 +3°C° 0 mm 5 mps 750 mmHg 64%
    09:00 +6°C° 0 mm 5 mps 751 mmHg 56%
    10:00 +7°C° 0 mm 5 mps 750 mmHg 52%
    11:00 +7°C° 0 mm 5 mps 750 mmHg 48%
    12:00 +8°C° 0 mm 4 mps 750 mmHg 44%
    13:00 +10°C° 0 mm 4 mps 750 mmHg 43%
    14:00 +10°C° 0 mm 4 mps 750 mmHg 42%
    15:00 +10°C° 0 mm 4 mps 750 mmHg 41%
    16:00 +8°C° 0 mm 4 mps 750 mmHg 44%
    17:00 +8°C° 0 mm 3 mps 749 mmHg 48%
    18:00 +7°C° 0 mm 3 mps 749 mmHg 52%
    19:00 +5°C° 0 mm 3 mps 749 mmHg 54%
    20:00 +6°C° 0 mm 2 mps 750 mmHg 56%
    21:00 +6°C° 0 mm 2 mps 750 mmHg 58%
    22:00 +6°C° 0 mm 2 mps 750 mmHg 58%
    23:00 +5°C° 0 mm 2 mps 749 mmHg 59%

    Day after tomorrow, 25 September, Wednesday

    Time Temperature Precipitation Wind Pressure Humidity
    00:00 +5°C° 0 mm 2 mps 749 mmHg 60%
    01:00 +5°C° 0 mm 2 mps 749 mmHg 62%
    02:00 +4°C° 0 mm 2 mps 750 mmHg 65%
    03:00 +4°C° 0 mm 2 mps 750 mmHg 68%
    04:00 +4°C° 0 mm 2 mps 750 mmHg 71%
    05:00 +3°C° 0 mm 2 mps 750 mmHg 74%
    06:00 +3°C° 0 mm 2 mps 750 mmHg 77%
    07:00 +4°C° 0 mm 2 mps 751 mmHg 70%
    08:00 +6°C° 0 mm 2 mps 751 mmHg 62%
    09:00 +7°C° 0 mm 2 mps 751 mmHg 55%
    10:00 +8°C° 0 mm 2 mps 751 mmHg 50%
    11:00 +9°C° 0 mm 2 mps 751 mmHg 45%
    12:00 +10°C° 0 mm 2 mps 751 mmHg 40%
    13:00 +10°C° 0 mm 2 mps 751 mmHg 40%
    14:00 +10°C° 0 mm 2 mps 751 mmHg 39%
    15:00 +11°C° 0 mm 3 mps 751 mmHg 38%
    16:00 +10°C° 0 mm 3 mps 751 mmHg 42%
    17:00 +9°C° 0 mm 2 mps 751 mmHg 46%
    18:00 +8°C° 0 mm 2 mps 751 mmHg 49%
    19:00 +7°C° 0 mm 2 mps 751 mmHg 51%
    20:00 +7°C° 0 mm 2 mps 751 mmHg 52%
    21:00 +8°C° 0 mm 1 mps 751 mmHg 54%
    22:00 +7°C° 0 mm 1 mps 751 mmHg 55%
    23:00 +7°C° 0 mm 1 mps 751 mmHg 56%

    26 September, Thursday

    Time Temperature Precipitation Wind Pressure Humidity
    00:00 +7°C° 0 mm 1 mps 751 mmHg 57%
    01:00 +6°C° 0 mm 1 mps 751 mmHg 58%
    02:00 +6°C° 0 mm 1 mps 751 mmHg 59%
    03:00 +6°C° 0 mm 1 mps 751 mmHg 60%
    04:00 +6°C° 0 mm 1 mps 751 mmHg 61%
    05:00 +5°C° 0 mm 1 mps 751 mmHg 63%
    06:00 +5°C° 0 mm 1 mps 751 mmHg 64%
    07:00 +6°C° 0 mm 1 mps 751 mmHg 59%
    08:00 +8°C° 0 mm 1 mps 752 mmHg 53%
    09:00 +9°C° 0 mm 2 mps 752 mmHg 48%
    10:00 +9°C° 0 mm 2 mps 752 mmHg 45%
    11:00 +10°C° 0 mm 2 mps 752 mmHg 41%
    12:00 +11°C° 0 mm 3 mps 752 mmHg 38%
    13:00 +11°C° 0 mm 3 mps 751 mmHg 37%
    14:00 +12°C° 0 mm 3 mps 751 mmHg 37%
    15:00 +12°C° 0 mm 3 mps 751 mmHg 36%
    16:00 +11°C° 0 mm 3 mps 751 mmHg 41%
    17:00 +10°C° 0 mm 3 mps 751 mmHg 45%
    18:00 +8°C° 0 mm 3 mps 751 mmHg 50%
    19:00 +8°C° 0 mm 2 mps 751 mmHg 54%
    20:00 +7°C° 0 mm 2 mps 751 mmHg 58%
    21:00 +6°C° 0 mm 2 mps 752 mmHg 62%
    22:00 +7°C° 0 mm 1 mps 752 mmHg 64%
    23:00 +7°C° 0 mm 1 mps 752 mmHg 66%

    27 September, Friday

    Time Temperature Precipitation Wind Pressure Humidity
    00:00 +6°C° 0 mm 1 mps 752 mmHg 68%
    01:00 +6°C° 0 mm 1 mps 752 mmHg 69%
    02:00 +6°C° 0 mm 1 mps 752 mmHg 70%
    03:00 +4°C° 0 mm 2 mps 752 mmHg 71%
    04:00 +4°C° 0 mm 2 mps 752 mmHg 71%
    05:00 +4°C° 0 mm 2 mps 752 mmHg 72%
    06:00 +3°C° 0 mm 3 mps 752 mmHg 72%
    07:00 +5°C° 0 mm 3 mps 752 mmHg 65%
    08:00 +7°C° 0 mm 3 mps 752 mmHg 58%
    09:00 +8°C° 0 mm 4 mps 752 mmHg 51%
    10:00 +10°C° 0 mm 4 mps 752 mmHg 48%
    11:00 +11°C° 0 mm 4 mps 752 mmHg 44%
    12:00 +12°C° 0 mm 4 mps 752 mmHg 41%
    13:00 +12°C° 0 mm 4 mps 752 mmHg 41%
    14:00 +13°C° 0 mm 4 mps 751 mmHg 41%
    15:00 +13°C° 0 mm 4 mps 751 mmHg 41%
    16:00 +12°C° 0 mm 4 mps 751 mmHg 45%
    17:00 +10°C° 0 mm 3 mps 751 mmHg 50%
    18:00 +9°C° 0 mm 3 mps 751 mmHg 54%
    19:00 +8°C° 0 mm 2 mps 752 mmHg 58%
    20:00 +7°C° 0 mm 2 mps 752 mmHg 62%
    21:00 +7°C° 0 mm 2 mps 752 mmHg 66%
    22:00 +6°C° 0 mm 2 mps 752 mmHg 67%
    23:00 +6°C° 0 mm 2 mps 753 mmHg 68%

    28 September, Saturday

    Time Temperature Precipitation Wind Pressure Humidity
    00:00 +5°C° 0 mm 2 mps 753 mmHg 70%
    01:00 +5°C° 0 mm 2 mps 753 mmHg 71%
    02:00 +5°C° 0 mm 2 mps 753 mmHg 72%
    03:00 +4°C° 0 mm 2 mps 753 mmHg 73%
    04:00 +5°C° 0 mm 1 mps 753 mmHg 74%
    05:00 +5°C° 0 mm 1 mps 753 mmHg 75%
    06:00 +5°C° 0 mm 1 mps 753 mmHg 76%
    07:00 +6°C° 0 mm 1 mps 754 mmHg 71%
    08:00 +8°C° 0 mm 1 mps 754 mmHg 65%
    09:00 +10°C° 0 mm 1 mps 754 mmHg 59%
    10:00 +10°C° 0 mm 1 mps 754 mmHg 57%
    11:00 +11°C° 0 mm 1 mps 754 mmHg 55%
    12:00 +12°C° 0 mm 2 mps 754 mmHg 53%
    13:00 +12°C° 0 mm 2 mps 754 mmHg 52%
    14:00 +12°C° 0 mm 1 mps 754 mmHg 52%
    15:00 +13°C° 0 mm 1 mps 754 mmHg 51%
    16:00 +12°C° 0 mm 1 mps 754 mmHg 53%
    17:00 +12°C° 0 mm 1 mps 754 mmHg 56%
    18:00 +11°C° 0 mm 1 mps 754 mmHg 58%
    19:00 +10°C° 0 mm 1 mps 754 mmHg 60%
    20:00 +10°C° 0 mm 1 mps 754 mmHg 62%
    21:00 +9°C° 0 mm 1 mps 755 mmHg 64%
    22:00 +9°C° 0 mm 1 mps 755 mmHg 65%
    23:00 +8°C° 0 mm 1 mps 755 mmHg 66%
    Show more